CPA165 VHHH-YBBN

Flight info

Callsign CPA165
Flight time N/A
Altitude 37000
Route DALOL V652 SABNO A583 TOKON/N0486F390 A583 ZAM A461 AMN R340 GUTEV/N0481F410 DCT 10S133E DCT GTE DCT 18S140E 2046S14343E DCT EML Y409 BESBO Y177 SMOKA
Aircraft A359/H-SABDE2E3GHIJ1J2J3J4J5LM1OP2RVWXYZ/LB1D1G1

Departure

Time 2026-05-06 16:40
Airport Hong Kong International Airport (VHHH)

Arrival

Time N/A
Airport Brisbane International Airport (YBBN)
Time Latitude Longitude Altitude Speed Heading
2026-05-06 16:02 22.31260 113.93465 41 ft 0 kts 70°
2026-05-06 16:24 22.31256 113.93452 41 ft 2 kts 72°
2026-05-06 16:24 22.31251 113.93435 41 ft 2 kts 74°
2026-05-06 16:24 22.31247 113.93418 41 ft 2 kts 77°
2026-05-06 16:25 22.31244 113.93401 41 ft 2 kts 82°
2026-05-06 16:25 22.31243 113.93383 41 ft 2 kts 90°
2026-05-06 16:25 22.31244 113.93366 41 ft 2 kts 105°
2026-05-06 16:25 22.31251 113.93350 40 ft 2 kts 136°
2026-05-06 16:26 22.31261 113.93342 38 ft 1 kts 156°
2026-05-06 16:26 22.31262 113.93342 38 ft 0 kts 158°
2026-05-06 16:27 22.31258 113.93344 36 ft 2 kts 158°
2026-05-06 16:27 22.31244 113.93349 41 ft 2 kts 160°
2026-05-06 16:27 22.31229 113.93355 40 ft 2 kts 160°
2026-05-06 16:27 22.31223 113.93357 41 ft 0 kts 160°
2026-05-06 16:31 22.31196 113.93368 41 ft 8 kts 161°
2026-05-06 16:32 22.31125 113.93394 41 ft 12 kts 161°
2026-05-06 16:32 22.31040 113.93423 41 ft 13 kts 175°
2026-05-06 16:32 22.30975 113.93359 41 ft 14 kts 239°
2026-05-06 16:32 22.30923 113.93255 41 ft 17 kts 244°
2026-05-06 16:33 22.30880 113.93129 41 ft 19 kts 250°
2026-05-06 16:33 22.30833 113.92981 41 ft 22 kts 251°
2026-05-06 16:33 22.30784 113.92830 41 ft 24 kts 250°
2026-05-06 16:34 22.30695 113.92556 41 ft 27 kts 250°
2026-05-06 16:34 22.30633 113.92362 41 ft 28 kts 251°
2026-05-06 16:34 22.30567 113.92156 41 ft 30 kts 251°
2026-05-06 16:34 22.30497 113.91939 41 ft 31 kts 251°
2026-05-06 16:35 22.30423 113.91712 42 ft 33 kts 251°
2026-05-06 16:35 22.30347 113.91474 42 ft 34 kts 251°
2026-05-06 16:35 22.30287 113.91291 42 ft 22 kts 251°
2026-05-06 16:35 22.30235 113.91130 42 ft 24 kts 251°
2026-05-06 16:36 22.30178 113.90954 42 ft 26 kts 250°
2026-05-06 16:36 22.30117 113.90764 42 ft 28 kts 250°
2026-05-06 16:36 22.30052 113.90563 42 ft 29 kts 250°
2026-05-06 16:36 22.29983 113.90351 42 ft 31 kts 250°
2026-05-06 16:37 22.29920 113.90153 42 ft 23 kts 251°
2026-05-06 16:37 22.29865 113.89983 42 ft 23 kts 251°
2026-05-06 16:37 22.29824 113.89856 42 ft 14 kts 251°
2026-05-06 16:37 22.29794 113.89778 42 ft 10 kts 233°
2026-05-06 16:38 22.29758 113.89767 42 ft 0 kts 171°
2026-05-06 16:38 22.29757 113.89767 42 ft 1 kts 171°
2026-05-06 16:38 22.29711 113.89780 42 ft 11 kts 161°
2026-05-06 16:39 22.29651 113.89807 42 ft 6 kts 145°
2026-05-06 16:39 22.29642 113.89855 42 ft 9 kts 84°
2026-05-06 16:39 22.29667 113.89937 42 ft 13 kts 71°
2026-05-06 16:39 22.29712 113.90079 42 ft 42 kts 71°
2026-05-06 16:40 22.29899 113.90659 42 ft 118 kts 71°
2026-05-06 16:40 22.30240 113.91714 127 ft 171 kts 70°
2026-05-06 16:40 22.30641 113.92926 845 ft 171 kts 70°
2026-05-06 16:40 22.31027 113.94126 1688 ft 169 kts 71°
2026-05-06 16:41 22.31401 113.95305 2339 ft 169 kts 71°
2026-05-06 16:41 22.31785 113.96508 2948 ft 170 kts 71°
2026-05-06 16:41 22.32186 113.97761 3401 ft 186 kts 71°
2026-05-06 16:41 22.32634 113.99155 3739 ft 206 kts 71°
2026-05-06 16:42 22.33114 114.00648 4321 ft 214 kts 71°
2026-05-06 16:42 22.33588 114.02187 4876 ft 218 kts 74°
2026-05-06 16:42 22.33799 114.03820 5579 ft 221 kts 91°
2026-05-06 16:42 22.33514 114.05441 6349 ft 222 kts 111°
2026-05-06 16:43 22.32722 114.06871 7098 ft 224 kts 131°
2026-05-06 16:43 22.31516 114.07961 7724 ft 234 kts 149°
2026-05-06 16:43 22.29970 114.08637 8233 ft 246 kts 167°
2026-05-06 16:43 22.28248 114.08805 8931 ft 252 kts 180°
2026-05-06 16:44 22.27062 114.08792 9229 ft 263 kts 181°
2026-05-06 16:44 22.24534 114.08729 10022 ft 277 kts 181°
2026-05-06 16:44 22.23238 114.08703 10387 ft 286 kts 181°
2026-05-06 16:44 22.21175 114.08669 10723 ft 306 kts 181°
2026-05-06 16:45 22.18274 114.08836 11283 ft 324 kts 167°
2026-05-06 16:45 22.16835 114.09395 11711 ft 327 kts 152°
2026-05-06 16:45 22.15083 114.10951 12391 ft 331 kts 128°
2026-05-06 16:45 22.13878 114.13076 13084 ft 334 kts 117°
2026-05-06 16:46 22.12823 114.15329 13756 ft 338 kts 116°
2026-05-06 16:46 22.11767 114.17610 14408 ft 342 kts 116°
2026-05-06 16:46 22.10692 114.19909 15074 ft 345 kts 117°
2026-05-06 16:46 22.09612 114.22200 15708 ft 348 kts 117°
2026-05-06 16:47 22.08473 114.24557 16336 ft 352 kts 119°
2026-05-06 16:47 22.07013 114.26636 16922 ft 355 kts 136°
2026-05-06 16:47 22.05095 114.28329 17537 ft 358 kts 143°
2026-05-06 16:47 22.03070 114.29917 18112 ft 361 kts 144°
2026-05-06 16:48 22.01088 114.31599 18669 ft 364 kts 137°
2026-05-06 16:48 21.99404 114.33661 19230 ft 367 kts 127°
2026-05-06 16:48 21.97927 114.35877 19748 ft 370 kts 124°
2026-05-06 16:48 21.96528 114.38220 20309 ft 373 kts 122°
2026-05-06 16:49 21.95175 114.40624 20831 ft 376 kts 121°
2026-05-06 16:49 21.93835 114.43056 21354 ft 379 kts 121°
2026-05-06 16:49 21.92484 114.45510 21839 ft 382 kts 121°
2026-05-06 16:49 21.91118 114.47970 22352 ft 385 kts 121°
2026-05-06 16:50 21.89727 114.50453 22835 ft 388 kts 121°
2026-05-06 16:50 21.88319 114.52945 23316 ft 390 kts 121°
2026-05-06 16:50 21.86898 114.55451 23791 ft 393 kts 121°
2026-05-06 16:50 21.85459 114.57981 24123 ft 399 kts 121°
2026-05-06 16:51 21.83997 114.60549 24290 ft 407 kts 121°
2026-05-06 16:51 21.82502 114.63176 24532 ft 413 kts 121°
2026-05-06 16:51 21.81011 114.65794 24866 ft 417 kts 121°
2026-05-06 16:51 21.79489 114.68466 25222 ft 419 kts 121°
2026-05-06 16:52 21.77961 114.71148 25606 ft 421 kts 121°
2026-05-06 16:52 21.76427 114.73839 25991 ft 423 kts 121°
2026-05-06 16:52 21.74882 114.76547 26361 ft 425 kts 121°
2026-05-06 16:52 21.73329 114.79269 26722 ft 427 kts 121°
2026-05-06 16:53 21.71771 114.81999 27081 ft 430 kts 121°
2026-05-06 16:53 21.70201 114.84747 27432 ft 432 kts 121°
2026-05-06 16:53 21.68624 114.87507 27779 ft 434 kts 121°
2026-05-06 16:53 21.67037 114.90284 28124 ft 437 kts 121°
2026-05-06 16:54 21.65462 114.93037 28458 ft 439 kts 121°
2026-05-06 16:54 21.63856 114.95842 28779 ft 441 kts 121°
2026-05-06 16:54 21.62247 114.98653 29114 ft 443 kts 121°
2026-05-06 16:54 21.60623 115.01487 29437 ft 445 kts 121°
2026-05-06 16:55 21.58993 115.04331 29760 ft 448 kts 121°
2026-05-06 16:55 21.57357 115.07183 30065 ft 450 kts 121°
2026-05-06 16:55 21.55710 115.10050 30381 ft 452 kts 122°
2026-05-06 16:55 21.53876 115.12802 30662 ft 454 kts 129°
2026-05-06 16:56 21.51694 115.15257 30957 ft 456 kts 138°
2026-05-06 16:56 21.49244 115.17433 31251 ft 458 kts 142°
2026-05-06 16:56 21.46660 115.19451 31537 ft 460 kts 145°
2026-05-06 16:56 21.44008 115.21384 31814 ft 462 kts 146°
2026-05-06 16:57 21.41301 115.23257 32071 ft 464 kts 149°
2026-05-06 16:57 21.38407 115.24811 32320 ft 466 kts 158°
2026-05-06 16:57 21.35381 115.25923 32570 ft 467 kts 163°
2026-05-06 16:57 21.32235 115.26849 32809 ft 469 kts 166°
2026-05-06 16:58 21.29059 115.27669 33037 ft 471 kts 167°
2026-05-06 16:58 21.25856 115.28445 33276 ft 472 kts 167°
2026-05-06 16:58 21.22644 115.29211 33495 ft 474 kts 167°
2026-05-06 16:58 21.19417 115.29985 33785 ft 473 kts 167°
2026-05-06 16:59 21.16209 115.30767 34102 ft 472 kts 167°
2026-05-06 16:59 21.13004 115.31558 34395 ft 472 kts 167°
2026-05-06 16:59 21.09807 115.32353 34675 ft 471 kts 167°
2026-05-06 16:59 21.06608 115.33153 34946 ft 471 kts 167°
2026-05-06 17:00 21.03421 115.33951 35196 ft 470 kts 167°
2026-05-06 17:00 21.00240 115.34748 35453 ft 469 kts 167°
2026-05-06 17:00 20.97095 115.35535 35686 ft 469 kts 167°
2026-05-06 17:00 20.93916 115.36330 35914 ft 469 kts 167°
2026-05-06 17:01 20.90745 115.37122 36127 ft 468 kts 167°
2026-05-06 17:01 20.87567 115.37915 36347 ft 468 kts 167°
2026-05-06 17:01 20.84400 115.38705 36532 ft 468 kts 167°
2026-05-06 17:01 20.81227 115.39496 36719 ft 468 kts 167°
2026-05-06 17:02 20.78051 115.40288 36894 ft 468 kts 167°
2026-05-06 17:02 20.71677 115.41875 37000 ft 468 kts 167°
2026-05-06 17:03 20.65364 115.43446 37000 ft 468 kts 167°
2026-05-06 17:03 20.59011 115.45025 37000 ft 468 kts 167°
2026-05-06 17:04 20.52657 115.46604 37000 ft 468 kts 167°
2026-05-06 17:04 20.46307 115.48180 37000 ft 468 kts 167°
2026-05-06 17:05 20.39988 115.49747 37000 ft 468 kts 167°
2026-05-06 17:05 20.33637 115.51320 37000 ft 468 kts 167°
2026-05-06 17:06 20.27276 115.52895 37000 ft 468 kts 167°
2026-05-06 17:06 20.20968 115.54455 37000 ft 468 kts 167°
2026-05-06 17:07 20.14615 115.56026 37000 ft 468 kts 167°
2026-05-06 17:07 20.08260 115.57595 37000 ft 468 kts 167°
2026-05-06 17:08 20.01907 115.59162 37000 ft 468 kts 167°
2026-05-06 17:08 19.95555 115.60728 37000 ft 468 kts 167°
2026-05-06 17:09 19.89246 115.62282 37000 ft 468 kts 167°
2026-05-06 17:09 19.82894 115.63846 37000 ft 468 kts 167°
2026-05-06 17:10 19.76545 115.65407 37000 ft 468 kts 167°
2026-05-06 17:10 19.70181 115.66971 37000 ft 468 kts 167°
2026-05-06 17:11 19.63872 115.68520 37001 ft 468 kts 167°
2026-05-06 17:11 19.57526 115.70077 37000 ft 468 kts 167°
2026-05-06 17:12 19.51171 115.71635 37000 ft 468 kts 167°
2026-05-06 17:12 19.44814 115.73192 37000 ft 468 kts 167°
2026-05-06 17:13 19.38502 115.74736 37000 ft 468 kts 167°
2026-05-06 17:13 19.32154 115.76289 37000 ft 468 kts 167°
2026-05-06 17:14 19.25790 115.77844 37000 ft 468 kts 167°
2026-05-06 17:14 19.22425 115.78665 37000 ft 468 kts 167°
2026-05-06 17:15 19.19084 115.79481 37002 ft 468 kts 167°
2026-05-06 17:15 19.13916 115.80742 37000 ft 468 kts 167°